TimeEDT,TemperatureF,Dew PointF,Humidity,Sea Level PressureIn,VisibilityMPH,Wind Direction,Wind SpeedMPH,Gust SpeedMPH,PrecipitationIn,Events,Conditions,WindDirDegrees,DateUTC
12:56 AM,64.9,57.9,78,29.96,10.0,WSW,4.6,-,N/A,,Clear,240,2012-10-06 04:56:00
1:56 AM,66.0,57.0,73,29.96,10.0,SSW,6.9,-,N/A,,Clear,210,2012-10-06 05:56:00
2:56 AM,64.0,55.9,75,29.93,10.0,WSW,5.8,-,N/A,,Clear,240,2012-10-06 06:56:00
3:56 AM,64.0,55.9,75,29.92,10.0,SW,8.1,-,N/A,,Clear,230,2012-10-06 07:56:00
4:56 AM,64.0,57.9,80,29.92,10.0,SSW,11.5,-,N/A,,Clear,210,2012-10-06 08:56:00
5:56 AM,63.0,57.9,84,29.92,10.0,SSW,10.4,-,N/A,,Clear,210,2012-10-06 09:56:00
6:56 AM,63.0,57.9,84,29.91,10.0,SSW,9.2,-,N/A,,Clear,210,2012-10-06 10:56:00
7:56 AM,64.0,57.9,80,29.90,10.0,SSW,11.5,-,N/A,,Clear,210,2012-10-06 11:56:00
8:56 AM,66.0,59.0,78,29.89,10.0,SSW,11.5,-,N/A,,Clear,200,2012-10-06 12:56:00
9:56 AM,69.1,60.1,73,29.89,10.0,SW,8.1,-,N/A,,Partly Cloudy,220,2012-10-06 13:56:00
10:56 AM,71.1,62.1,73,29.88,10.0,SSW,8.1,-,N/A,,Mostly Cloudy,200,2012-10-06 14:56:00
11:56 AM,75.0,63.0,66,29.86,10.0,SSW,6.9,-,N/A,,Clear,200,2012-10-06 15:56:00
12:56 PM,80.1,57.9,47,29.86,10.0,West,8.1,-,N/A,,Clear,270,2012-10-06 16:56:00
1:56 PM,78.1,57.9,50,29.86,10.0,NNW,9.2,-,N/A,,Overcast,330,2012-10-06 17:56:00
2:56 PM,70.0,54.0,57,29.90,10.0,North,19.6,26.5,N/A,,Overcast,360,2012-10-06 18:56:00
3:56 PM,69.1,48.9,49,29.92,10.0,North,15.0,24.2,N/A,,Overcast,360,2012-10-06 19:56:00
4:56 PM,68.0,46.9,47,29.94,10.0,North,13.8,21.9,N/A,,Mostly Cloudy,10,2012-10-06 20:56:00
5:56 PM,66.0,44.1,45,29.96,10.0,North,8.1,17.3,N/A,,Clear,10,2012-10-06 21:56:00
6:56 PM,62.1,43.0,50,29.99,10.0,North,9.2,-,N/A,,Clear,350,2012-10-06 22:56:00
7:56 PM,60.1,41.0,49,30.01,10.0,North,10.4,-,N/A,,Clear,10,2012-10-06 23:56:00
8:56 PM,59.0,42.1,53,30.04,10.0,North,9.2,-,N/A,,Clear,10,2012-10-07 00:56:00
9:56 PM,57.9,42.1,56,30.06,10.0,NNE,3.5,-,N/A,,Clear,20,2012-10-07 01:56:00
10:56 PM,55.0,42.1,62,30.07,10.0,Calm,Calm,-,N/A,,Partly Cloudy,0,2012-10-07 02:56:00
11:56 PM,52.0,45.0,77,30.07,10.0,NNW,4.6,-,N/A,,Clear,340,2012-10-07 03:56:00